Temp_Advection
nan nan nan nan nan nan nan nan nan nan nan nan nan nan nan nan nan nan nan nan nan nan nan nan nan nan nan nan nan nan nan nan nan nan nan nan nan nan nan nan nan nan nan
nan 0 -0 -0 -0 0 0 0 0 0 -0 -0 -0 0 0 0 0 0 0 0 0 0 -0 0 0 0 0 0 0 0 0 0 0 0 0 0 0 0 -0 0 -0 -0 nan
nan -0 -0 -0 0 0 0 0 0 0 0 -0 -0 -0 0 0 0 0 0 0 0 0 -0 -0 0 0 0 0 0 0 0 0 0 0 0 0 0 0 -0 -0 0 0 nan
nan -0 -0 0 0 0 0 0 0 0 0 0 0 0 0 0 0 0 0 0 0 0 -0 -0 0 0 0 0 0 0 0 0 0 0 0 0 0 0 0 -0 0 0 nan
nan 0 0 0 0 0 0 0 0 0 0 0 0 0 0 0 0 0 0 0 0 0 0 0 0 0 0 -0 -0 0 -0 -0 -0 0 0 -0 0 -0 0 0 0 0 nan
nan 0 0 0 1 1 1 0 0 0 1 0 0 0 0 0 0 0 0 0 0 0 0 0 0 -0 0 0 0 0 0 -0 0 0 0 0 0 0 0 0 0 0 nan
nan 1 1 1 1 1 1 0 0 0 0 0 0 0 0 0 0 0 0 0 0 0 0 0 0 0 0 0 0 0 -0 0 0 0 0 0 0 0 0 0 0 0 nan
nan -0 -0 0 1 1 0 0 0 0 0 0 0 0 0 0 0 0 0 0 -0 0 0 0 0 0 0 0 0 -0 -0 0 0 0 0 0 0 0 0 0 0 0 nan
nan -0 0 0 -0 0 0 0 0 0 0 0 0 0 0 0 0 0 0 0 0 0 0 0 0 0 0 0 -0 0 0 0 0 0 0 0 0 0 0 0 0 0 nan
nan 0 0 0 0 -0 0 0 -0 0 0 0 0 0 0 0 0 0 0 0 0 0 0 0 0 0 0 0 0 0 0 0 0 0 0 0 0 0 0 0 0 0 nan
nan 0 0 0 -0 0 0 -0 -0 0 0 0 0 0 0 0 0 0 0 0 0 0 0 0 0 0 0 0 0 0 0 0 0 0 0 -0 0 0 0 0 0 0 nan
nan -0 -0 -0 0 0 -0 -0 -0 0 0 0 1 0 -0 0 0 -0 0 0 0 0 0 0 0 -0 -0 0 0 0 0 0 0 0 -0 0 0 0 1 0 1 0 nan
nan -2 -1 -1 -0 -0 0 0 0 0 0 0 0 0 0 0 -0 0 0 0 0 -0 0 0 0 -0 0 0 0 0 0 -0 0 0 0 0 0 -0 0 0 0 1 nan
nan -1 -1 -1 -1 -0 -0 0 0 0 -0 -0 0 -0 -0 0 -0 0 0 0 0 0 0 0 -0 -0 0 0 0 0 0 -0 0 0 0 -0 -0 -0 0 1 1 1 nan
nan -2 -1 -2 -1 -1 -0 0 0 0 0 -0 -0 -0 0 0 0 0 0 0 0 0 0 0 -0 -0 0 0 1 0 0 -0 -0 0 0 -0 -0 1 -0 0 0 0 nan
nan -3 -2 -2 -2 -2 -1 0 -0 0 -0 -0 -0 -0 0 0 0 0 0 -0 -0 0 0 0 0 0 0 1 0 -0 -0 -0 -0 0 0 -0 1 1 1 0 0 0 nan
nan -2 -2 -2 -2 -2 -2 -1 -0 -0 -0 0 -0 -0 0 1 1 1 -0 -0 0 0 0 1 0 0 0 0 -0 0 0 -0 0 0 0 1 1 1 1 0 0 0 nan
nan -2 -1 -1 -2 -2 -2 -2 -1 -0 0 -0 -0 -0 0 1 1 -0 -0 0 1 0 0 0 0 0 0 -0 -0 0 0 -0 0 0 0 1 1 0 0 0 0 0 nan
nan -3 -3 -2 -2 -2 -2 -2 -1 -1 -0 -0 0 0 0 0 0 -0 0 0 0 -0 -0 -0 0 0 -0 -0 0 0 0 0 0 0 0 0 0 0 0 0 1 1 nan
nan -2 -2 -2 -2 -2 -3 -3 -2 -1 -0 0 0 0 0 0 0 -0 0 0 0 -0 -0 0 0 -0 -0 0 0 0 0 1 1 1 0 0 0 1 1 1 0 1 nan
nan -2 -2 -2 -2 -2 -3 -4 -1 -1 -0 0 0 0 0 0 -0 0 1 0 -0 -0 0 0 0 -0 0 1 1 1 3 3 2 2 2 2 2 2 1 1 1 0 nan
nan -1 -2 -2 -2 -2 -3 -2 -4 -5 -2 -0 0 0 0 0 0 0 0 0 -0 -0 -0 -0 -0 0 1 1 1 -1 -0 2 3 3 2 2 2 1 2 1 1 0 nan
nan -1 -1 -2 -2 -2 -2 -2 -1 -2 -3 -0 1 0 0 1 0 -0 -0 0 -0 -0 -0 -0 -0 1 1 1 1 -0 -2 -1 1 2 1 1 1 0 1 1 1 0 nan
nan -1 -1 -1 -1 -1 -1 -2 -2 -2 -2 -3 -2 -0 1 1 -0 -0 0 0 0 -0 -0 -0 0 1 -0 -1 -1 -0 -1 -2 -3 -1 1 1 1 0 0 1 1 1 nan
nan -1 -1 -1 -1 -1 -1 -1 -1 -2 -1 -1 -2 -1 -1 -0 -0 0 0 -0 -0 -0 -0 0 1 1 -1 -1 -1 -1 -1 0 -1 -4 -1 1 1 1 0 1 1 1 nan
nan nan nan nan nan nan nan nan nan nan nan nan nan nan nan nan nan nan nan nan nan nan nan nan nan nan nan nan nan nan nan nan nan nan nan nan nan nan nan nan nan nan nan
Wind_Speed
21 19 21 20 18 15 14 13 13 15 15 14 14 13 12 11 11 10 8 7 7 8 8 8 8 8 9 8 9 11 9 11 12 11 8 7 8 13 15 16 16 16 15
19 20 20 17 16 15 15 13 13 14 13 13 12 11 11 11 11 10 9 8 8 8 9 10 9 9 9 8 7 8 9 11 11 10 6 8 8 14 15 16 15 16 16
12 14 17 15 14 14 15 14 13 14 12 11 11 11 10 11 11 11 10 9 9 9 10 10 9 9 10 8 7 8 9 10 11 9 8 9 10 14 16 16 16 16 17
10 12 14 14 13 14 15 14 14 14 14 12 9 8 9 10 11 11 11 10 9 10 10 10 10 10 10 9 9 9 10 10 10 10 10 10 12 15 17 17 17 18 19
11 15 13 12 12 13 15 15 16 16 15 12 9 7 8 10 12 12 12 12 11 10 10 11 11 11 11 10 10 11 11 11 11 11 11 13 15 17 17 18 18 19 19
9 10 9 10 12 14 15 16 17 17 16 13 10 8 8 9 10 12 13 12 12 11 12 12 12 11 11 11 10 11 11 12 13 13 13 16 17 18 19 20 20 21 21
7 9 10 11 13 14 15 16 18 17 15 15 11 9 9 10 11 11 12 13 13 12 13 13 13 13 13 12 10 10 10 11 12 14 16 18 18 20 21 21 21 22 23
5 7 10 12 12 13 14 16 15 17 16 15 13 11 11 11 12 12 12 13 13 13 14 14 14 14 14 13 11 11 10 11 12 14 17 18 19 20 21 22 23 24 24
4 5 9 10 10 10 12 14 17 16 17 16 15 14 13 13 13 13 12 13 13 14 14 14 14 14 14 14 13 12 11 12 12 15 18 19 19 20 21 23 24 24 25
5 7 9 11 12 11 15 16 15 17 18 18 17 15 15 14 14 13 13 13 13 13 13 14 14 15 15 15 15 13 12 13 13 16 19 20 19 20 22 24 26 28 29
6 5 7 12 14 15 16 16 16 18 19 19 18 18 18 18 16 16 15 15 15 14 14 14 14 15 16 17 17 16 15 16 15 17 20 20 19 21 24 27 29 32 33
8 8 7 11 14 15 17 17 20 21 22 21 21 20 21 20 18 18 17 17 16 17 17 15 14 16 15 16 17 18 17 18 17 18 20 21 21 21 26 32 35 36 33
23 19 15 11 12 16 18 19 19 24 24 23 20 19 20 21 20 19 20 19 18 18 19 20 21 20 19 19 20 20 21 21 19 19 20 22 21 21 29 37 39 38 38
23 23 20 16 14 15 19 21 22 21 26 26 26 22 21 22 21 21 21 21 20 20 20 21 22 21 21 21 22 23 24 23 21 21 22 25 25 25 27 51 33 44 36
24 23 23 21 17 18 21 22 23 24 24 25 25 25 24 23 23 23 22 23 23 22 22 24 24 22 21 21 22 21 25 27 25 22 24 26 28 32 5 37 36 29 27
28 25 25 24 21 18 21 21 25 24 23 27 24 25 24 24 24 24 24 25 25 24 23 25 25 24 24 22 23 23 22 23 24 21 23 26 28 30 33 14 16 19 20
29 31 29 28 24 23 23 17 22 29 26 26 26 24 22 22 24 23 27 28 27 27 26 25 24 24 24 23 24 24 23 25 24 22 23 27 29 26 31 27 21 23 23
28 27 30 30 28 25 24 24 21 27 28 27 28 28 24 23 24 22 20 20 20 19 21 25 26 27 26 26 29 26 26 24 22 23 21 29 32 30 25 25 28 25 24
30 29 25 27 31 28 24 24 24 29 29 28 31 27 24 22 24 23 22 19 18 19 22 24 32 29 29 32 25 29 27 23 24 26 34 44 40 39 39 35 34 29 24
28 28 28 24 25 29 25 23 24 31 26 31 29 28 28 25 26 26 22 19 17 21 26 30 36 28 35 38 35 30 31 32 36 37 46 49 40 37 34 32 30 29 23
29 28 29 28 26 26 27 24 26 24 31 32 27 29 31 28 28 28 26 22 20 23 29 30 35 34 35 41 32 39 34 39 35 44 40 35 39 39 38 36 31 29 26
33 33 30 29 28 27 27 27 26 25 26 24 29 34 36 30 29 29 26 25 25 25 26 33 32 39 41 44 41 42 22 33 36 39 36 37 38 36 33 29 28 28 26
35 35 35 31 29 28 28 27 26 22 23 24 29 31 36 32 28 25 27 27 27 29 27 30 42 44 47 46 44 34 27 17 36 35 30 32 29 27 27 27 24 21 21
35 33 32 31 29 28 27 27 26 27 25 18 19 26 32 30 28 24 27 28 27 28 30 34 41 39 53 52 50 39 28 50 33 22 26 25 26 24 24 24 23 23 20
32 34 32 30 28 27 27 26 27 26 26 26 15 18 25 26 28 28 30 29 30 30 34 38 41 46 50 44 49 42 31 43 39 45 39 28 30 28 26 25 23 21 20
32 32 32 32 31 28 27 27 25 27 26 26 20 14 16 26 32 29 31 30 31 33 37 43 48 52 48 44 49 44 41 45 40 39 46 35 31 28 26 24 23 22 21
Wind_Direction
196 199 191 189 188 191 193 193 188 186 185 190 194 195 193 197 197 195 202 208 210 198 186 182 192 191 185 180 177 182 182 179 173 161 148 143 139 140 143 139 141 138 130
195 195 191 192 189 193 194 196 195 189 187 191 194 200 198 198 202 202 205 203 201 191 180 185 199 195 190 184 181 183 181 185 189 179 181 167 161 151 151 149 148 144 137
204 206 193 191 192 195 196 198 198 192 189 190 194 199 204 206 205 208 210 205 196 188 183 191 205 201 195 189 187 183 175 175 177 193 182 177 169 158 156 155 153 153 147
197 194 194 190 197 199 201 202 203 198 194 189 199 211 213 213 212 210 212 210 201 196 195 200 210 209 207 202 198 193 188 192 190 196 195 183 179 167 164 157 161 161 156
201 192 204 200 205 208 206 207 208 206 199 192 200 217 222 219 216 214 215 213 208 204 206 205 211 215 210 206 204 208 207 204 200 193 190 190 176 175 172 165 164 165 161
227 208 213 224 221 217 215 213 211 213 203 201 207 216 222 224 223 218 220 215 215 211 211 213 215 216 215 212 204 212 216 213 202 197 196 189 179 179 178 170 171 168 165
228 219 233 234 232 227 221 223 215 212 210 209 215 224 226 232 233 228 225 223 220 218 218 219 219 217 215 214 213 208 210 206 204 197 193 189 184 182 179 176 174 173 168
296 285 269 257 233 226 225 228 221 216 214 224 224 226 230 237 237 234 230 227 225 221 221 219 218 217 217 217 215 212 210 201 194 189 188 188 186 184 182 178 176 174 171
221 218 224 236 269 248 240 230 222 211 222 228 234 234 235 240 238 238 234 228 222 223 226 225 220 222 219 217 217 215 206 200 192 189 187 189 189 189 184 180 177 173 167
187 202 216 218 225 242 253 236 231 214 224 233 236 241 245 241 244 241 236 229 225 224 227 229 225 226 222 221 222 220 212 204 193 195 192 191 192 190 185 179 175 171 167
235 236 226 218 215 235 235 243 228 228 228 231 236 241 242 243 242 240 237 231 230 226 226 227 225 225 224 227 227 226 216 207 200 200 197 195 196 193 188 182 178 172 165
291 294 291 245 233 232 228 230 236 228 234 235 233 237 242 243 243 244 238 232 229 226 224 227 223 226 225 230 228 225 217 207 211 210 203 202 201 196 189 181 175 170 168
335 330 323 280 251 244 235 235 236 240 234 230 229 237 246 242 242 242 242 237 233 229 229 232 234 234 233 237 233 231 219 213 216 214 209 206 206 203 190 179 174 165 158
325 320 321 315 273 251 244 235 237 239 248 241 248 255 244 248 242 241 242 241 238 234 232 234 236 238 236 234 233 233 223 215 223 216 214 209 207 206 206 170 170 157 152
323 313 308 313 304 267 254 239 239 239 248 260 261 260 259 245 244 243 242 243 242 237 234 235 238 238 238 234 232 232 229 230 232 222 219 214 214 212 79 134 153 157 152
335 323 312 301 308 292 265 240 241 244 240 251 261 262 257 248 244 243 242 243 242 239 235 236 238 237 237 235 234 229 222 220 227 230 223 220 215 218 214 213 136 143 149
346 336 325 315 301 298 283 263 239 245 245 244 252 255 259 253 244 242 242 242 243 239 237 233 234 235 235 238 226 227 226 226 223 222 215 209 198 187 175 182 168 162 160
347 342 330 321 312 299 279 269 253 239 242 249 244 249 252 266 245 240 246 243 242 241 230 225 226 230 226 226 222 224 214 224 221 216 207 199 185 172 182 179 170 172 174
350 344 337 319 315 308 296 271 255 246 246 241 244 243 248 259 245 248 250 242 230 219 222 224 220 228 225 219 213 222 206 210 211 213 178 160 161 158 156 158 158 159 166
353 348 342 342 324 315 308 275 255 246 241 231 239 236 243 251 261 250 253 235 227 218 219 221 221 223 226 216 205 201 193 177 167 165 147 155 160 171 169 156 150 141 150
352 354 352 344 344 331 320 310 253 250 240 235 234 232 233 243 254 261 246 230 218 216 223 223 223 229 200 197 207 167 170 164 151 149 166 162 164 160 157 156 156 146 142
355 352 356 352 347 343 337 330 319 277 250 237 234 230 234 232 243 261 235 224 215 221 221 220 220 203 205 190 176 161 125 128 138 147 145 143 144 145 146 149 149 152 152
358 356 352 355 350 346 340 332 323 303 261 236 234 233 225 226 232 245 229 222 219 225 227 228 219 223 196 177 175 171 141 138 119 131 136 137 144 144 145 148 153 154 153
357 356 354 350 351 348 345 339 336 332 312 290 251 229 222 218 219 229 227 227 224 230 224 229 225 217 200 185 172 176 171 162 141 121 139 144 148 148 148 152 155 156 162
355 355 355 352 352 349 347 344 340 332 323 312 290 253 233 216 220 220 230 229 228 230 219 223 213 205 189 196 195 179 179 168 165 155 142 149 147 148 151 155 154 155 159
353 352 352 353 352 353 349 344 342 336 328 322 317 281 236 224 213 223 223 229 229 226 228 221 209 198 201 199 197 194 192 179 185 175 157 154 155 152 158 162 168 169 167
Height
1491 1492 1494 1496 1498 1499 1501 1503 1505 1507 1508 1509 1510 1512 1514 1515 1517 1518 1519 1520 1522 1523 1524 1525 1526 1527 1529 1530 1532 1533 1535 1536 1538 1540 1541 1542 1543 1544 1546 1548 1550 1551 1553
1491 1492 1494 1496 1498 1499 1501 1503 1505 1507 1508 1509 1510 1512 1513 1515 1516 1517 1519 1520 1521 1522 1524 1525 1527 1528 1529 1530 1532 1533 1535 1537 1538 1540 1541 1543 1544 1545 1547 1550 1551 1553 1554
1492 1494 1496 1497 1498 1500 1501 1503 1505 1507 1508 1509 1511 1512 1514 1515 1516 1517 1519 1520 1521 1522 1523 1525 1526 1528 1529 1531 1532 1534 1535 1537 1539 1540 1541 1544 1545 1547 1548 1551 1553 1554 1556
1493 1494 1496 1497 1499 1500 1502 1503 1505 1506 1508 1510 1511 1512 1514 1515 1516 1517 1518 1520 1521 1522 1523 1524 1526 1528 1529 1530 1532 1533 1535 1537 1539 1540 1542 1543 1546 1548 1549 1550 1553 1556 1558
1494 1494 1497 1498 1499 1500 1502 1503 1505 1506 1508 1509 1511 1512 1513 1514 1515 1516 1518 1519 1520 1521 1523 1524 1526 1527 1528 1530 1531 1533 1535 1536 1538 1540 1541 1543 1546 1548 1550 1551 1554 1557 1558
1497 1497 1499 1499 1500 1500 1502 1503 1504 1506 1508 1509 1511 1512 1512 1514 1514 1515 1517 1519 1520 1520 1522 1523 1525 1527 1528 1529 1530 1532 1534 1535 1537 1539 1541 1543 1545 1547 1549 1551 1555 1557 1560
1500 1499 1500 1500 1500 1501 1502 1504 1505 1507 1508 1509 1510 1512 1512 1513 1515 1515 1517 1518 1519 1520 1522 1522 1524 1526 1527 1528 1529 1531 1533 1534 1536 1538 1541 1543 1545 1547 1549 1551 1555 1557 1560
1501 1504 1504 1502 1502 1502 1503 1504 1505 1506 1508 1509 1509 1510 1512 1513 1514 1515 1516 1517 1518 1519 1521 1521 1523 1525 1527 1528 1529 1530 1532 1534 1536 1538 1540 1543 1545 1547 1549 1552 1555 1557 1560
1499 1499 1500 1503 1506 1505 1504 1504 1504 1505 1507 1508 1509 1510 1511 1512 1513 1515 1516 1516 1517 1518 1520 1521 1522 1524 1525 1527 1528 1530 1532 1534 1536 1538 1540 1543 1545 1546 1549 1552 1555 1557 1560
1497 1497 1497 1497 1499 1499 1504 1504 1504 1504 1505 1506 1508 1508 1509 1511 1512 1513 1514 1516 1516 1517 1519 1520 1521 1523 1524 1526 1527 1529 1531 1534 1535 1538 1540 1542 1545 1546 1548 1551 1554 1557 1560
1497 1497 1496 1496 1496 1498 1499 1502 1503 1503 1503 1504 1505 1506 1507 1508 1510 1511 1512 1514 1515 1516 1518 1519 1520 1522 1522 1525 1527 1529 1530 1533 1534 1536 1539 1542 1544 1546 1548 1550 1553 1556 1559
1496 1496 1495 1495 1494 1494 1495 1497 1501 1502 1502 1503 1503 1503 1504 1505 1508 1509 1511 1511 1513 1514 1516 1518 1519 1520 1520 1524 1526 1528 1530 1531 1533 1535 1538 1541 1544 1546 1548 1548 1550 1553 1557
1498 1497 1494 1493 1493 1493 1494 1495 1497 1500 1500 1500 1500 1500 1501 1502 1504 1506 1509 1510 1511 1512 1514 1515 1516 1518 1519 1522 1524 1526 1529 1530 1532 1535 1537 1540 1544 1546 1547 1546 1546 1549 1553
1497 1496 1494 1492 1490 1491 1491 1492 1493 1494 1497 1498 1499 1498 1498 1499 1501 1502 1505 1507 1508 1509 1511 1513 1514 1515 1517 1519 1521 1524 1527 1527 1530 1533 1536 1538 1540 1543 1545 1530 1535 1545 1551
1498 1495 1493 1491 1488 1488 1488 1489 1490 1491 1493 1494 1495 1495 1495 1496 1497 1499 1501 1502 1504 1506 1508 1510 1511 1513 1515 1517 1518 1520 1523 1525 1527 1531 1534 1535 1536 1538 1517 1512 1528 1542 1551
1498 1494 1490 1489 1487 1485 1485 1484 1486 1487 1487 1490 1491 1492 1492 1493 1494 1495 1496 1497 1500 1502 1504 1507 1508 1510 1513 1515 1516 1518 1520 1522 1524 1528 1530 1533 1534 1535 1533 1542 1544 1548 1554
1500 1495 1491 1486 1483 1482 1482 1480 1480 1483 1484 1484 1486 1488 1488 1489 1490 1490 1491 1492 1495 1497 1500 1502 1505 1507 1511 1512 1514 1515 1518 1520 1522 1525 1527 1530 1533 1536 1539 1545 1545 1551 1553
1499 1495 1491 1486 1481 1478 1477 1476 1476 1478 1479 1478 1481 1483 1484 1484 1485 1485 1486 1487 1490 1491 1494 1497 1501 1504 1506 1509 1511 1512 1514 1517 1520 1523 1525 1525 1532 1536 1542 1544 1549 1554 1558
1499 1493 1489 1486 1481 1476 1473 1471 1471 1473 1473 1473 1475 1477 1480 1481 1482 1482 1482 1483 1486 1488 1491 1494 1495 1500 1503 1506 1506 1511 1512 1515 1516 1519 1524 1516 1528 1533 1539 1544 1550 1553 1557
1499 1495 1489 1483 1479 1476 1470 1466 1465 1466 1466 1468 1470 1471 1475 1476 1477 1478 1478 1479 1482 1484 1486 1488 1490 1495 1497 1503 1505 1507 1509 1513 1514 1519 1514 1520 1524 1534 1538 1543 1548 1553 1557
1501 1494 1488 1482 1476 1472 1467 1460 1458 1458 1462 1463 1462 1465 1467 1470 1472 1472 1473 1475 1476 1479 1481 1485 1489 1492 1493 1498 1500 1501 1506 1512 1510 1509 1517 1520 1524 1532 1537 1542 1547 1551 1558
1500 1495 1487 1482 1477 1472 1468 1464 1459 1453 1453 1455 1457 1456 1461 1463 1465 1467 1468 1469 1471 1474 1477 1478 1481 1486 1490 1492 1494 1499 1509 1511 1513 1513 1517 1523 1526 1532 1536 1542 1548 1553 1558
1499 1493 1488 1481 1478 1474 1468 1462 1458 1455 1450 1447 1448 1449 1452 1455 1458 1460 1463 1464 1466 1469 1471 1475 1476 1480 1483 1486 1489 1495 1502 1509 1511 1519 1524 1527 1531 1536 1539 1544 1550 1556 1560
1500 1496 1490 1484 1479 1474 1468 1462 1458 1452 1448 1443 1439 1440 1444 1447 1450 1453 1458 1460 1462 1464 1466 1469 1472 1474 1476 1479 1487 1492 1491 1493 1505 1520 1528 1532 1535 1540 1543 1548 1552 1557 1561
1502 1496 1491 1487 1480 1474 1467 1461 1456 1451 1444 1444 1433 1436 1437 1434 1442 1448 1452 1456 1457 1459 1462 1464 1468 1471 1475 1478 1482 1486 1493 1498 1502 1506 1519 1534 1534 1541 1546 1551 1554 1559 1564
1503 1496 1490 1484 1477 1470 1466 1463 1454 1448 1442 1437 1429 1429 1427 1431 1435 1441 1444 1448 1452 1454 1457 1459 1462 1465 1469 1476 1478 1484 1487 1490 1499 1502 1515 1527 1533 1540 1546 1550 1553 1558 1564